Flag for Canada Weather past 2 weeks in Mississauga, Ontario, Canada

Now
27 °F

Mostly cloudy.


Feels Like: 16 °F
Forecast: 13 / 32 °F
Wind: 12 mph from West

Location: Toronto Pearson International Airport

Current Time: Mar 4, 2015 at 8:38:33 AM

Latest Report: Mar 4, 2015 at 8:00 AM


Visibility: 12 mi

Pressure: 29.85 "Hg

Humidity: 80%

Dew point: 21 °F

Location of MississaugaLocation

Historic Weather in Mississauga — Graph

°F

Mississauga temperature yesterday

Maximum temperature yesterday: 34 °F (at 10:00 PM)
Minimum temperature yesterday: 9 °F (at 2:00 AM)
Average temperature yesterday: 20 °F

Past Weeks' High & Low Weather Summary

 TemperatureHumidityPressure
High34 °F (Mar 3, 10:00 PM)100% (Mar 3, 8:00 PM)30.80 "Hg (Mar 3, 8:00 PM)
Low-9 °F (Feb 20, 3:00 AM)24% (Feb 17, 3:00 PM)29.57 "Hg (Mar 3, 7:00 PM)
Average11 °F67%30.18 "Hg
* Reported Feb 17 7:00 AM — Mar 4 7:00 AM, Mississauga, Weather by CustomWeather, © 2015

Note: Actual official high and low records may vary slightly from our data, if they occured in-between our weather recording intervals... More about our weather records

Advertising

Mississauga weather history for previous 24 hours

 ConditionsComfort  
Time TempWeatherWind HumidityBarometerVisibility
7:00 AM
Wed, Mar 4
25 °FBroken clouds.9 mph74%29.82 "Hg12 mi
6:00 AM27 °FPartly cloudy.9 mph74%29.81 "Hg15 mi
5:00 AM30 °FOvercast.15 mph75%29.78 "Hg15 mi
4:00 AM30 °FOvercast.18 mph75%29.75 "Hg15 mi
3:00 AM32 °FOvercast.15 mph75%29.73 "Hg15 mi
2:00 AM32 °FOvercast.20 mph75%29.72 "Hg15 mi
1:00 AM32 °FMostly cloudy.18 mph75%29.70 "Hg15 mi
12:00 AM34 °FOvercast.15 mph75%29.67 "Hg15 mi
11:00 PM
Tue, Mar 3
34 °FOvercast.18 mph81%29.64 "Hg12 mi
10:00 PM34 °FOvercast.21 mph81%29.60 "Hg10 mi
9:00 PM28 °FIce fog.5 mph93%29.58 "Hg5 mi
8:00 PM27 °FLight freezing rain. Ice fog.3 mph100%29.57 "Hg2 mi
7:00 PM27 °FLight freezing rain. Low clouds.5 mph93%29.57 "Hg2 mi
6:00 PM27 °FLight freezing rain. Ice fog.9 mph93%29.61 "Hg2 mi
5:00 PM25 °FLight freezing rain. Ice fog.8 mph93%29.67 "Hg2 mi
4:00 PM23 °FCold.10 mph86%29.73 "Hg2 mi
3:00 PM23 °FCold.13 mph86%29.82 "Hg2 mi
2:00 PM21 °FLight snow. Mostly cloudy.12 mph93%29.90 "Hg1 mi
1:00 PM21 °FLight snow. Low clouds.10 mph86%30.00 "Hg1 mi
12:00 PM21 °FLight snow. Ice fog.10 mph86%30.10 "Hg1 mi
11:00 AM23 °FLight snow. Overcast.9 mph68%30.16 "Hg2 mi
10:50 AM23 °FLight snow. Overcast.10 mph68%30.17 "Hg6 mi
10:00 AM23 °FOvercast.7 mph74%30.22 "Hg15 mi
9:00 AM21 °FOvercast.3 mph80%30.25 "Hg15 mi
8:00 AM18 °FOvercast.5 mph79%30.27 "Hg12 mi
Weather by CustomWeather, © 2015

See weather overviewHow to use our weather pages